NOAA 16 DEB

Satellite information

Favourite Embed

Satellite Type and Status

DEBRISIN ORBIT

Key statistics

Satellite NOAA 16 DEB at a glance.

Uptime

9214

Days in orbit

Revolutions

≈ 14.7

Per day

Orbit

SSO

Sun Synchronous Orbit

Inclination

98.8

Latest

Satellite identification and parameters

Extended collection of information and parameters for NOAA 16 DEB.

Object identification

Identified? True

Debris? True

Object name: NOAA 16 DEB

International designator: 2000-055HR

Object number (NORAD): 41348

Object ID (CCSDS): 41348

Country: UNITED STATES OF AMERICA (US)

Current information (Y/N): Y

RCS size: SMALL

Orbital parameters

Period: 98.169 minutes

Inclination: 98.7947 deg

SMA: 7049.269 km

Apoapsis: 686.137 km

Periapsis: 656.131 km

RAAN: 102.1795 deg

Eccentricy: 0.00212831

Argument of periapsis: 265.0063 deg

Mean anomaly: 94.8709 deg

Mean motion: 14.66853248 rev/day

Mean motion (dot): 0.00057842 rev/day2

B* drag term: 0.010245478 1/REarth

Two-line elements (TLE)

Creation date: Dec. 11, 2025, 3:54 a.m.

Reference frame: TEME

Reference center: EARTH

Epoch: Dec. 10, 2025, 6:43 p.m. UTC

TLE line 0: 0 NOAA 16 DEB

TLE line 1: 1 41348U 00055HR 25344.78051623 .00057842 00000-0 10245-1 0 9999

TLE line 2: 2 41348 98.7947 102.1795 0021283 265.0063 94.8709 14.66853248512089

Live tracking on map

Real-time ground track for satellite NOAA 16 DEB.

In-orbit conjunctions

A list of the most updated potential collisions computed for object NOAA 16 DEB.

Target Orbit TCA Probability of collision Miss distance Type
COSMOS 2441 SSO 2025-04-04 15:38:48 0.0005013912 265.0 (m) PAYLOAD
FENGYUN 1C DEB SSO 2024-11-14 11:21:19 0.0001847554 612.0 (m) DEBRIS

Associated space launch

The NOAA K, L and M POES satellites begin the fifth generation of improved environmental monitoring in support of NOAA missions. The instrument payload has significant improvements and additions/deletions. The instrument changes have effected the spacecraft subsystems and data formats.

NOAA 16 DEB was lifted into orbit during the mission ‘Titan II SLV | NOAA 16’, on board a Titan II SLV space rocket.

The launch took place on Sept. 21, 2000, 10:22 a.m. from Space Launch Complex 4W.

For more information about the launch, click the button.

Launch to space Titan II SLV | NOAA 16
Titan II SLV | NOAA 16

Agency: N/A

Status: Launch Successful

Launch date: Sept. 21, 2000, 10:22 a.m. UTC

Rocket: Titan II SLV

Launch pad: Space Launch Complex 4W

Location: Vandenberg SFB, CA, USA

...

Latest news about this satellite

There are no fresh news available about this satellite. Check back as we update our databases every day.


Newsletter sign-up

Weekly statistics, charts and insights to help you stay on top of the space industry.